STARLINK-5651, 55357

Orbit data source: Space-Track

STARLINK-5651, 55357 is a payload satellite owned by SpaceX/Seattle (US) in LEO that was launched on Thu, 26 Jan 2023 UTC via an FALCON 9 launch vehicle from the Air Force Eastern Test Range (AFETR). Payload-class satellites include a variety of spacecraft equipped with specific instruments for various scientific and technological missions. These include communications satellites like Starlink; space stations such as the ISS; scientific satellites like the Hubble; Earth observation satellites from companies like Planet Labs, Umbra, and HawkEye 360; GPS; miniature CubeSats for education and research; and military/defense satellites.

Loading next visibility...
Identifier
55357, 2023-013AC
Orbit
LEO
Country
Flag of USUS
Related business
Manufacturer
SpaceX/Seattle
Mission
Operational Commercial Communications
Bus & Motor
STARLINK, Unknown motor
Mass
305 kg wet, ~290 kg dry
Launch date (UTC)
2023-01-26 (3 years ago)
Launch vehicle
FALCON 9
Launch site
Air Force Eastern Test Range (AFETR)
Object type
Payload
Rocket body
Debris
Shape & HBR
Box + 1 Pan, 10.1 m
Radar Cross Section
13.562 m², Large (>1 m²)

Expand to show TLE details & history
Last TLE update: 1 day ago

TLE from 1 day ago
0 STARLINK-5651
1 55357U 23013AC  25348.53669543  .00001026  00000-0  91068-4 0  9994
2 55357  43.0044  42.7277 0001361 261.7536  98.3152 15.02525997158908
Epoch: 2025-12-14T12:52Z
TLE epoch observation values (Epoch: 2025-12-14T12:52:50.485Z)
Latitude
-0.00001°
Longitude
126.06914°
Altitude
559.025 km
Speed
7.584 km/s
True Right ascension
02h 50m 54s
True Declination
0° 00' 00"
Sunlit
Object was in full shadow at epoch
Visualization orbit readout
Latitude
Unknown
Longitude
Unknown
Altitude
Unknown
Speed
Unknown
Apparent Right ascension
Unknown
Apparent Declination
Unknown
Sunlit
N/A
Visualization observer readout
Local Sidereal Time
13:24:51
Azimuth
Unknown
Elevation
Unknown
Doppler factor
Unknown
Orbital elements
Apogee altitude
561.978 km
Perigee altitude
560.089 km
Semi-major axis
6,939.171 km
Eccentricity
0.00014
Inclination
43.0044°
RAAN
42.7277°
Arg. of periapsis
261.7536°
True anomaly
98.33063°
Mean anomaly
98.3152°
Eccentric anomaly
98.32292°
Mean motion
3.75476 °/min
Orbital period
95.88 mins
BSTAR
0.000091068
Loading maneuver chart data...
Computing Atmospheric mass density...
Loading historical data...
Loading historical data...
Loading historical data...
Loading historical data...
Loading historical data...
Loading historical data...
Loading historical data...

Documentation

Showing up to 5 results
|